[[{"header":{"parameterUnit":"m.s-1","parameterCategory":1,"la1":30.2991,"la2":30.254,"lo1":-89.0895,"lo2":-89.0444,"dy":0.0017,"dx":0.0017,"nx":28,"ny":28,"refTime":"2023-08-23T21:00:00:Z","depth":0,"parameterNumber":2,"parameterNumberName":"U-component_of_WINDS"},"data":[0,0,0,0,0,0,0,0,0,0,0,0,0,0,0,0,0,0,0,0,0,0,0,0,0,0,0,0,0,0,0,0,0,0,0,0,0,0,0,0,0,0,0,0,0,0,0,0,0,0,0,0,0,0,0,0,0,0,1.1648,1.1648,0,1.1628,1.1628,1.1628,1.1603,1.1602,1.1602,1.1601,1.1581,1.1581,1.1581,0,0,0,0,0,0,0,0,0,0,0,0,0,1.1665,1.1664,1.1648,1.1648,1.1648,1.1628,1.1628,1.1628,1.1603,1.1602,1.1602,1.1601,1.1581,1.1581,1.1581,0,0,0,0,0,0,0,0,0,0,0,0,0,1.1652,1.1664,1.1648,1.1633,1.1631,1.1628,1.1628,1.1628,1.1603,1.1602,1.1602,1.1601,1.1581,1.1581,1.1581,1.1592,0,0,1.158,1.158,0,0,0,0,0,0,0,0,1.1653,1.1652,1.1635,1.1634,1.1632,1.1617,1.1626,1.1616,1.1603,1.1614,1.1601,1.1601,1.1594,1.1593,1.159,1.1591,1.159,1.158,1.158,1.158,1.158,0,0,0,0,0,0,0,1.1654,1.1653,1.164,1.1635,1.1633,1.1627,1.1625,1.1624,1.1607,1.1613,1.1611,1.1609,1.1593,1.159,1.1589,1.1589,1.158,1.158,1.158,1.158,1.1597,1.1597,0,0,0,0,0,0,1.1657,1.1653,1.1641,1.164,1.1641,1.1627,1.1624,1.1623,1.1607,1.1604,1.1609,1.1608,1.1591,1.159,1.1589,1.1599,1.158,1.158,1.158,1.1596,1.1597,1.1598,0,0,0,0,0,0,1.1658,1.1656,1.1642,1.1646,1.1644,1.1627,1.1626,1.1623,1.162,1.1605,1.1602,1.161,1.1591,1.1589,1.1591,1.1598,1.158,1.1579,1.1595,1.1596,1.1597,1.162,0,0,0,0,0,0,1.1658,1.1657,1.166,1.1646,1.1644,1.1644,1.1626,1.1623,1.162,1.1617,1.1604,1.1602,1.159,1.1591,1.1591,1.1597,1.1579,1.1595,1.1596,1.1597,1.1619,1.1622,1.1625,0,0,0,0,0,1.1659,1.1668,1.1661,1.1659,1.1648,1.1645,1.1643,1.1629,1.162,1.1624,1.1614,1.1602,1.1598,1.1592,1.1591,1.1597,1.1594,1.1596,1.1597,1.1618,1.1621,1.1625,0,0,0,0,0,0,1.1683,1.1666,1.1657,1.1662,1.1655,1.164,1.1644,1.1634,1.1629,1.1627,1.161,1.1608,1.1611,1.1605,1.1598,1.1606,1.1594,1.1595,1.161,1.1614,1.1617,1.1617,1.1579,0,0,0,0,0,1.1689,1.1688,1.1673,1.1679,1.1675,1.1661,1.1659,1.1649,1.1641,1.1637,1.1628,1.162,1.1617,1.1615,1.1612,1.1618,1.1615,1.1623,1.1625,1.1628,1.1629,1.1631,1.1634,1.1602,1.1602,1.1602,0,0,1.1701,1.1692,1.1692,1.1683,1.1676,1.1675,1.1658,1.1658,1.1657,1.1637,1.1638,1.1631,1.1621,1.1625,1.1627,1.162,1.1637,1.163,1.1632,1.1631,1.1632,1.1635,1.1638,1.1603,1.1603,1.1603,0,0,1.1723,1.1716,1.1719,1.1713,1.1703,1.1693,1.1694,1.1681,1.1675,1.1676,1.1661,1.1659,1.1655,1.1648,1.1644,1.1664,1.1652,1.1663,1.1677,1.168,1.1682,1.1684,1.169,1.1692,1.1664,1.1664,1.1664,0,1.1739,1.1737,1.1722,1.1723,1.1719,1.1702,1.1705,1.1699,1.1689,1.1686,1.1679,1.1672,1.1665,1.1667,1.1671,1.167,1.1669,1.1664,1.1683,1.1685,1.1687,1.1692,1.1694,1.1665,1.1665,1.1665,1.1665,0,1.1757,1.1755,1.1759,1.1749,1.1746,1.1748,1.1734,1.1732,1.1723,1.1714,1.1714,1.1705,1.1699,1.1699,1.169,1.1699,1.1695,1.1686,1.1673,1.1691,1.1696,1.1698,1.1667,1.1667,1.1666,1.1666,0,0,1.1792,1.1774,1.1775,1.177,1.1758,1.1757,1.1758,1.1751,1.175,1.1744,1.1744,1.174,1.1731,1.1727,1.1717,1.1719,1.1734,1.1709,1.1709,1.1713,1.1742,1.1748,1.1751,1.1726,1.1727,1.1727,1.1742,0,1.181,1.181,1.1797,1.1801,1.1799,1.1783,1.1784,1.1776,1.1768,1.1765,1.1756,1.1753,1.1743,1.174,1.1741,1.1731,1.1739,1.173,1.1725,1.1725,1.1727,1.1753,1.176,1.1775,1.1744,1.1745,1.1745,0,1.183,1.1824,1.1828,1.1815,1.1814,1.1815,1.1808,1.1806,1.1797,1.1791,1.1786,1.1775,1.1775,1.1764,1.1763,1.1757,1.1755,1.175,1.175,1.1748,1.1735,1.1751,1.1779,1.1781,1.1748,1.1748,1.1747,0,1.1854,1.1847,1.1848,1.1845,1.183,1.1831,1.1825,1.1816,1.1812,1.1807,1.1804,1.1799,1.1795,1.1791,1.1779,1.1772,1.1779,1.1767,1.1773,1.1773,1.1774,1.1774,1.1802,1.1775,1.1775,1.1775,1.1775,0,1.1874,1.1877,1.1858,1.1859,1.1861,1.1847,1.1849,1.1842,1.1834,1.1832,1.1819,1.1818,1.1802,1.1799,1.179,1.179,1.1789,1.1783,1.178,1.1784,1.1784,1.1781,1.1779,1.1776,1.1775,1.1775,1.1775,0,1.19,1.1888,1.1888,1.1874,1.1871,1.1873,1.1861,1.1861,1.1852,1.1851,1.185,1.1836,1.1832,1.1819,1.1812,1.1806,1.1808,1.1804,1.1811,1.1809,1.1815,1.1814,1.184,1.1843,1.1816,1.1816,1.1817,0,1.1913,1.1915,1.1901,1.1899,1.1894,1.1891,1.1888,1.1874,1.1871,1.1861,1.1862,1.1857,1.1852,1.1846,1.1835,1.183,1.1824,1.1834,1.1823,1.1826,1.1823,1.1822,1.1822,1.1835,1.1836,1.1836,1.1836,0,1.1937,1.1931,1.1927,1.1921,1.1917,1.1912,1.1905,1.1904,1.1889,1.1886,1.1882,1.1878,1.1871,1.1865,1.1858,1.1852,1.1841,1.184,1.1841,1.1843,1.1847,1.1844,1.1816,1.1839,1.1839,1.1839,1.1838,1.1838,1.1956,1.1956,1.1947,1.1942,1.1936,1.1931,1.1929,1.1921,1.1917,1.1909,1.1902,1.1898,1.1889,1.1878,1.1873,1.1869,1.1864,1.1865,1.1866,1.1866,1.1867,1.1849,1.1868,1.1868,1.1868,1.1868,1.1868,0,1.1978,1.1972,1.1968,1.1959,1.1956,1.1947,1.1939,1.1937,1.1933,1.1926,1.1921,1.1916,1.1911,1.19,1.1894,1.1893,1.1888,1.1892,1.1891,1.189,1.1873,1.1872,1.1896,1.1896,1.1896,1.1896,1.1896,1.1896,1.1989,1.1989,1.1982,1.1978,1.1971,1.1968,1.1964,1.1958,1.1952,1.1947,1.1943,1.1936,1.1927,1.192,1.1914,1.1911,1.1909,1.1914,1.1909,1.1894,1.1891,1.1888,1.1887,1.1914,1.1914,1.1926,1.1926,1.1926]},{"header":{"parameterUnit":"m.s-1","parameterCategory":1,"la1":30.2991,"la2":30.254,"lo1":-89.0895,"lo2":-89.0444,"dy":0.0017,"dx":0.0017,"nx":28,"ny":28,"refTime":"2023-08-23T21:00:00:Z","depth":0,"parameterNumber":3,"parameterNumberName":"V-component_of_WINDS"},"data":[0,0,0,0,0,0,0,0,0,0,0,0,0,0,0,0,0,0,0,0,0,0,0,0,0,0,0,0,0,0,0,0,0,0,0,0,0,0,0,0,0,0,0,0,0,0,0,0,0,0,0,0,0,0,0,0,0,0,0.9606,0.9605,0,0.9529,0.9528,0.9527,0.9475,0.9475,0.9475,0.9474,0.9391,0.9389,0.9387,0,0,0,0,0,0,0,0,0,0,0,0,0,0.9705,0.9704,0.9606,0.9605,0.9604,0.9529,0.9528,0.9527,0.9475,0.9475,0.9475,0.9474,0.9392,0.939,0.9387,0,0,0,0,0,0,0,0,0,0,0,0,0,0.9649,0.9703,0.9606,0.957,0.9566,0.9529,0.9528,0.9526,0.9475,0.9475,0.9474,0.9474,0.9393,0.939,0.9387,0.9379,0,0,0.9378,0.9377,0,0,0,0,0,0,0,0,0.9652,0.9645,0.9576,0.9572,0.9567,0.9511,0.9532,0.9477,0.9476,0.951,0.9474,0.9474,0.9431,0.9425,0.9412,0.9375,0.9372,0.9378,0.9376,0.9375,0.9374,0,0,0,0,0,0,0,0.9656,0.9648,0.9575,0.9575,0.957,0.9556,0.9547,0.9521,0.9474,0.9507,0.9503,0.9494,0.9429,0.9415,0.9409,0.9371,0.9378,0.9376,0.9374,0.9373,0.9323,0.9323,0,0,0,0,0,0,0.9666,0.9652,0.9578,0.9573,0.9609,0.9554,0.9545,0.953,0.9474,0.9465,0.9495,0.9492,0.942,0.9413,0.9406,0.9393,0.9375,0.9372,0.9371,0.9323,0.9323,0.9324,0,0,0,0,0,0,0.9668,0.966,0.9581,0.9611,0.96,0.9553,0.9537,0.9528,0.9514,0.9465,0.9456,0.9489,0.9419,0.941,0.9386,0.9389,0.9371,0.9368,0.9322,0.9323,0.9323,0.9367,0,0,0,0,0,0,0.9672,0.9661,0.9659,0.9612,0.9599,0.9564,0.9537,0.9527,0.951,0.9506,0.9458,0.9449,0.9418,0.9391,0.9384,0.9385,0.9366,0.9322,0.9323,0.9323,0.9365,0.9369,0.9372,0,0,0,0,0,0.9675,0.9674,0.9659,0.965,0.9595,0.9564,0.9556,0.9522,0.951,0.9507,0.9475,0.9451,0.939,0.9389,0.938,0.9381,0.9321,0.9322,0.9323,0.9363,0.9368,0.9372,0,0,0,0,0,0,0.9721,0.9667,0.965,0.9633,0.9604,0.9556,0.955,0.9528,0.95,0.9497,0.9454,0.9443,0.9424,0.94,0.9399,0.937,0.9353,0.9352,0.9386,0.9391,0.9394,0.94,0.9364,0,0,0,0,0,0.973,0.971,0.9663,0.9653,0.9639,0.9597,0.9583,0.9558,0.9526,0.9512,0.9479,0.9447,0.9421,0.9404,0.9378,0.9361,0.935,0.9357,0.9361,0.9364,0.9364,0.9353,0.9355,0.9327,0.9327,0.9327,0,0,0.9746,0.9714,0.9704,0.9661,0.9636,0.9615,0.9587,0.9567,0.9551,0.9509,0.9485,0.9459,0.9421,0.9401,0.939,0.938,0.9369,0.9365,0.9368,0.9366,0.9354,0.9356,0.9359,0.9327,0.9327,0.9327,0,0,0.9766,0.9741,0.9729,0.9704,0.9666,0.9638,0.9635,0.959,0.9572,0.9547,0.9515,0.9495,0.9451,0.9424,0.9405,0.9415,0.9391,0.9407,0.9426,0.9415,0.9418,0.9419,0.9422,0.9424,0.9407,0.9407,0.9407,0,0.9791,0.9761,0.9725,0.9707,0.9688,0.9651,0.9637,0.9615,0.9569,0.9557,0.9547,0.949,0.9461,0.9434,0.9437,0.9423,0.9417,0.9412,0.9421,0.9422,0.9423,0.9425,0.9426,0.9409,0.9409,0.9409,0.9409,0,0.9793,0.9773,0.9767,0.9726,0.9707,0.9691,0.9652,0.9636,0.9614,0.9587,0.9561,0.9525,0.949,0.9482,0.9459,0.9451,0.9446,0.9429,0.9411,0.9429,0.943,0.943,0.9412,0.9412,0.9411,0.941,0,0,0.984,0.9779,0.9777,0.9758,0.9713,0.9696,0.9678,0.9645,0.9632,0.9602,0.9585,0.9548,0.9532,0.951,0.9484,0.9475,0.9484,0.9458,0.9457,0.9464,0.9472,0.9485,0.9486,0.9468,0.9468,0.9468,0.9475,0,0.9852,0.982,0.9787,0.9766,0.9745,0.9709,0.9693,0.9663,0.9637,0.9615,0.9586,0.956,0.9541,0.9528,0.9517,0.9485,0.9485,0.9484,0.945,0.9449,0.9461,0.9487,0.95,0.9509,0.9475,0.9475,0.9475,0,0.9863,0.9835,0.9813,0.9769,0.9759,0.9746,0.9713,0.9693,0.9657,0.9639,0.9615,0.9587,0.9565,0.955,0.9518,0.9519,0.9503,0.9485,0.9484,0.9479,0.9463,0.9482,0.951,0.9511,0.9475,0.9475,0.9475,0,0.9898,0.9855,0.9836,0.982,0.977,0.9761,0.9739,0.9704,0.9686,0.9656,0.9644,0.9611,0.9594,0.9569,0.9533,0.9525,0.9504,0.9486,0.9487,0.9488,0.9484,0.9485,0.951,0.9475,0.9475,0.9475,0.9475,0,0.9915,0.9902,0.9851,0.9839,0.9823,0.9785,0.977,0.9744,0.9713,0.9694,0.9661,0.9643,0.9597,0.9574,0.9546,0.9523,0.9515,0.9499,0.9491,0.9501,0.9504,0.949,0.9488,0.9475,0.9475,0.9475,0.9475,0,0.9952,0.9917,0.9893,0.9848,0.9836,0.9826,0.9786,0.9772,0.9744,0.9721,0.9713,0.9669,0.964,0.9602,0.9561,0.9541,0.9522,0.9511,0.9535,0.953,0.9533,0.9533,0.955,0.955,0.9516,0.9516,0.9517,0,0.9965,0.9954,0.9907,0.9893,0.9873,0.985,0.9832,0.9793,0.9776,0.9734,0.9725,0.9694,0.9667,0.9622,0.9586,0.9554,0.9541,0.9549,0.9535,0.9546,0.954,0.9541,0.9539,0.9552,0.9552,0.9553,0.9553,0,0.9991,0.9975,0.995,0.992,0.99,0.9874,0.9846,0.9836,0.9791,0.9772,0.9743,0.9722,0.9681,0.9649,0.9613,0.9588,0.9563,0.9558,0.9556,0.9566,0.958,0.9572,0.9543,0.9557,0.9557,0.9557,0.9557,0.9556,1.0015,1.0004,0.997,0.9944,0.9919,0.9894,0.9878,0.9849,0.9825,0.9789,0.9767,0.9738,0.9702,0.965,0.9627,0.9603,0.9593,0.9591,0.959,0.959,0.9593,0.9585,0.9596,0.9596,0.9596,0.9596,0.9596,0,1.004,1.0016,0.9992,0.9955,0.9934,0.9914,0.9882,0.9865,0.9841,0.981,0.9784,0.975,0.972,0.9681,0.9648,0.9636,0.9623,0.9628,0.9628,0.9623,0.9605,0.9609,0.9639,0.9639,0.9639,0.9639,0.9639,0.9639,1.005,1.0029,1.0009,0.9975,0.9951,0.9924,0.9907,0.9883,0.9858,0.9822,0.9797,0.9773,0.9738,0.9702,0.9673,0.9662,0.9651,0.9659,0.9645,0.9628,0.9624,0.9621,0.9624,0.9657,0.9657,0.9665,0.9665,0.9665]}]]